Location: Mississauga
(43.5802°N, 79.6166°W)
Time: 08:17:40
(UTC-04:00)

Cosmos 1437 Rocket - Visible Passes

Search period start: 21 April 2014 00:00
Search period end: 01 May 2014 00:00
Orbit: 527 x 570 km, 81.2° (Epoch: 20 April)

Date Brightness Start Highest point End Pass type
(mag) Time Alt. Az. Time Alt. Az. Time Alt. Az.
21 Apr 3.2 04:17:50 38° SSE 04:19:13 63° E 04:23:20 10° NNE visible
21 Apr 5.0 05:54:39 10° W 05:56:13 12° WNW 05:57:47 10° NW visible
22 Apr 3.0 04:13:21 47° SSE 04:14:25 70° E 04:18:33 10° NNE visible
22 Apr 5.0 05:50:26 10° W 05:51:28 11° WNW 05:52:31 10° NW visible
23 Apr 2.9 04:08:50 56° SSE 04:09:37 77° E 04:13:45 10° NNE visible
24 Apr 2.8 04:04:16 67° S 04:04:47 85° E 04:08:56 10° NNE visible
25 Apr 2.7 03:59:39 77° SSW 03:59:57 87° W 04:04:06 10° N visible
26 Apr 2.7 03:55:01 79° WSW 03:55:06 80° W 03:59:15 10° N visible
27 Apr 2.8 03:50:20 72° WNW 03:50:20 72° WNW 03:54:22 10° N visible
28 Apr 3.0 03:45:37 64° NW 03:45:37 64° NW 03:49:28 10° N visible
29 Apr 5.7 02:05:11 11° ENE 02:05:11 11° ENE 02:05:46 10° ENE visible
29 Apr 3.2 03:40:52 56° NW 03:40:52 56° NW 03:44:33 10° N visible
30 Apr 5.7 02:00:25 12° ENE 02:00:25 12° ENE 02:01:15 10° ENE visible
30 Apr 3.3 03:36:06 50° NW 03:36:06 50° NW 03:39:37 10° N visible
